| time (UTC) | temp F | wind direction | speed MPH | gust MPH | rain 1hr in | rain 24hr in | rain mn in | humidity % | barometer mb |
| 20260906173013 | 86 | 315 | 0.0 | 0.0 | 0.00 | 0.01 | 0.01 | 55 | 999.0 |
| 20260906171511 | 86 | 315 | 0.0 | 1.0 | 0.00 | 0.01 | 0.01 | 51 | 998.7 |
| 20260906170009 | 87 | 315 | 0.0 | 5.0 | 0.00 | 0.01 | 0.01 | 48 | 998.5 |
| 20260906164506 | 87 | 294 | 2.0 | 5.0 | 0.00 | 0.01 | 0.01 | 46 | 998.3 |
| 20260906163003 | 87 | 43 | 2.0 | 6.0 | 0.00 | 0.01 | 0.01 | 46 | 997.8 |
| 20260906161503 | 86 | 344 | 0.0 | 1.0 | 0.00 | 0.01 | 0.01 | 48 | 997.7 |
| 20260906160100 | 86 | 30 | 2.0 | 6.0 | 0.00 | 0.01 | 0.01 | 47 | 997.4 |
| 20260906154559 | 86 | 130 | 0.0 | 1.0 | 0.00 | 0.01 | 0.01 | 47 | 997.4 |
| 20260906153058 | 85 | 160 | 0.0 | 1.0 | 0.00 | 0.01 | 0.01 | 50 | 997.3 |
| 20260906151558 | 84 | 160 | 0.0 | 0.0 | 0.00 | 0.01 | 0.01 | 51 | 997.2 |
| 20260906150055 | 84 | 160 | 0.0 | 0.0 | 0.00 | 0.01 | 0.01 | 52 | 997.1 |
| 20260906144608 | 83 | 160 | 0.0 | 0.0 | 0.00 | 0.01 | 0.01 | 54 | 996.9 |
| 20260906143101 | 82 | 160 | 0.0 | 0.0 | 0.00 | 0.01 | 0.01 | 54 | 996.6 |
| 20260906141551 | 82 | 163 | 0.0 | 1.0 | 0.00 | 0.01 | 0.01 | 55 | 996.4 |
| 20260906140047 | 83 | 311 | 0.0 | 0.0 | 0.00 | 0.01 | 0.01 | 52 | 996.3 |
| 20260906134545 | 83 | 312 | 0.0 | 0.0 | 0.00 | 0.01 | 0.01 | 52 | 996.0 |
| 20260906133046 | 83 | 312 | 0.0 | 1.0 | 0.00 | 0.01 | 0.01 | 49 | 995.8 |
| 20260906131540 | 84 | 319 | 0.0 | 5.0 | 0.00 | 0.01 | 0.01 | 50 | 995.7 |
| 20260906130043 | 85 | 90 | 0.0 | 2.0 | 0.00 | 0.01 | 0.01 | 49 | 995.4 |
| 20260906124539 | 85 | 88 | 0.0 | 2.0 | 0.00 | 0.01 | 0.01 | 49 | 995.3 |
| 20260906123039 | 85 | 62 | 0.0 | 5.0 | 0.00 | 0.01 | 0.01 | 49 | 995.2 |
| 20260906121536 | 84 | 87 | 4.0 | 8.0 | 0.00 | 0.01 | 0.01 | 52 | 995.3 |
| 20260906120041 | 84 | 80 | 2.0 | 5.0 | 0.01 | 0.01 | 0.01 | 53 | 995.3 |
| 20260906114545 | 84 | 94 | 1.0 | 7.0 | 0.01 | 0.01 | 0.01 | 50 | 995.4 |
| 20260906113031 | 84 | 107 | 1.0 | 6.0 | 0.01 | 0.01 | 0.01 | 48 | 995.5 |
| 20260906111533 | 85 | 138 | 4.0 | 6.0 | 0.01 | 0.01 | 0.01 | 44 | 995.4 |
| 20260906110024 | 87 | 221 | 1.0 | 5.0 | 0.00 | 0.00 | 0.00 | 41 | 995.2 |
| 20260906104531 | 87 | 150 | 0.0 | 2.0 | 0.00 | 0.00 | 0.00 | 36 | 994.8 |
| 20260906103020 | 87 | 26 | 0.0 | 2.0 | 0.00 | 0.00 | 0.00 | 37 | 994.6 |
| 20260906101520 | 87 | 22 | 0.0 | 0.0 | 0.00 | 0.00 | 0.00 | 36 | 994.5 |
| 20260906100019 | 87 | 22 | 0.0 | 1.0 | 0.00 | 0.00 | 0.00 | 35 | 994.4 |
| 20260906094539 | 87 | 23 | 0.0 | 1.0 | 0.00 | 0.00 | 0.00 | 35 | 994.3 |
| 20260906093027 | 87 | 23 | 0.0 | 1.0 | 0.00 | 0.00 | 0.00 | 36 | 994.3 |
| 20260906091514 | 86 | 22 | 0.0 | 1.0 | 0.00 | 0.00 | 0.00 | 36 | 994.4 |
| 20260906090023 | 86 | 22 | 0.0 | 1.0 | 0.00 | 0.00 | 0.00 | 35 | 994.5 |
| 20260906084515 | 86 | 22 | 0.0 | 0.0 | 0.00 | 0.00 | 0.00 | 35 | 994.5 |
| 20260906083011 | 87 | 22 | 0.0 | 1.0 | 0.00 | 0.00 | 0.00 | 34 | 994.5 |
| 20260906081514 | 86 | 22 | 0.0 | 0.0 | 0.00 | 0.00 | 0.00 | 35 | 994.5 |
| 20260906080011 | 86 | 22 | 0.0 | 0.0 | 0.00 | 0.00 | 0.00 | 35 | 994.4 |
| 20260906074509 | 87 | 22 | 0.0 | 0.0 | 0.00 | 0.00 | 0.00 | 34 | 994.4 |
| 20260906073012 | 87 | 22 | 0.0 | 1.0 | 0.00 | 0.00 | 0.00 | 34 | 994.5 |
| 20260906071506 | 87 | 241 | 0.0 | 2.0 | 0.00 | 0.00 | 0.00 | 34 | 994.6 |
| 20260906070004 | 87 | 234 | 0.0 | 0.0 | 0.00 | 0.00 | 0.00 | 33 | 994.6 |
| 20260906064503 | 87 | 234 | 0.0 | 1.0 | 0.00 | 0.00 | 0.00 | 32 | 994.7 |
| 20260906063003 | 88 | 213 | 0.0 | 2.0 | 0.00 | 0.00 | 0.00 | 32 | 994.7 |
| 20260906061503 | 88 | 221 | 0.0 | 1.0 | 0.00 | 0.00 | 0.00 | 31 | 994.5 |
| 20260906060002 | 89 | 211 | 0.0 | 1.0 | 0.00 | 0.00 | 0.00 | 31 | 994.4 |
| 20260906054504 | 88 | 153 | 0.0 | 2.0 | 0.00 | 0.00 | 0.00 | 32 | 994.4 |
| 20260906053000 | 88 | 161 | 0.0 | 4.0 | 0.00 | 0.00 | 0.00 | 31 | 994.6 |
| 20260906051607 | 89 | 215 | 0.0 | 1.0 | 0.00 | 0.00 | 0.00 | 30 | 994.6 |
| 20260906050107 | 92 | 219 | 0.0 | 2.0 | 0.00 | 0.00 | 0.00 | 28 | 994.6 |
| 20260906044603 | 93 | 140 | 0.0 | 2.0 | 0.00 | 0.00 | 0.00 | 27 | 994.5 |
| 20260906043101 | 93 | 105 | 0.0 | 4.0 | 0.00 | 0.00 | 0.00 | 26 | 994.4 |
| 20260906041558 | 94 | 130 | 0.0 | 4.0 | 0.00 | 0.00 | 0.00 | 26 | 994.4 |
| 20260906040104 | 94 | 113 | 0.0 | 7.0 | 0.00 | 0.00 | 0.00 | 26 | 994.3 |
| 20260906034601 | 94 | 142 | 3.0 | 6.0 | 0.00 | 0.00 | 0.00 | 25 | 994.2 |
| 20260906033057 | 94 | 144 | 2.0 | 5.0 | 0.00 | 0.00 | 0.00 | 25 | 994.2 |
| 20260906031557 | 95 | 121 | 3.0 | 8.0 | 0.00 | 0.00 | 0.00 | 25 | 994.0 |
| 20260906030101 | 95 | 153 | 3.0 | 8.0 | 0.00 | 0.00 | 0.00 | 26 | 993.7 |
| 20260906024559 | 95 | 157 | 3.0 | 8.0 | 0.00 | 0.00 | 0.00 | 25 | 993.6 |
| 20260906023055 | 96 | 156 | 3.0 | 9.0 | 0.00 | 0.00 | 0.00 | 24 | 993.4 |
| 20260906021554 | 97 | 161 | 5.0 | 9.0 | 0.00 | 0.00 | 0.00 | 24 | 993.3 |
| 20260906020053 | 98 | 148 | 7.0 | 12.0 | 0.00 | 0.00 | 0.00 | 23 | 993.3 |
| 20260906014632 | 99 | 157 | 5.0 | 12.0 | 0.00 | 0.00 | 0.00 | 23 | 993.4 |
| 20260906013058 | 100 | 163 | 6.0 | 12.0 | 0.00 | 0.00 | 0.00 | 23 | 993.4 |
| 20260906011554 | 100 | 153 | 8.0 | 15.0 | 0.00 | 0.00 | 0.00 | 22 | 993.5 |
| 20260906010053 | 100 | 134 | 7.0 | 14.0 | 0.00 | 0.00 | 0.00 | 22 | 993.5 |
| 20260906004558 | 101 | 160 | 9.0 | 19.0 | 0.00 | 0.00 | 0.00 | 22 | 993.5 |
| 20260906003054 | 101 | 194 | 9.0 | 18.0 | 0.00 | 0.00 | 0.00 | 22 | 993.6 |
| 20260906001648 | 100 | 142 | 9.0 | 16.0 | 0.00 | 0.00 | 0.00 | 23 | 993.4 |
| 20260906000048 | 100 | 147 | 8.0 | 15.0 | 0.00 | 0.00 | 0.00 | 24 | 993.5 |
| 20260905234549 | 101 | 117 | 10.0 | 18.0 | 0.00 | 0.00 | 0.00 | 23 | 993.5 |
| 20260905233049 | 101 | 175 | 8.0 | 16.0 | 0.00 | 0.00 | 0.00 | 22 | 993.5 |
| 20260905231546 | 102 | 242 | 8.0 | 16.0 | 0.00 | 0.00 | 0.00 | 20 | 993.5 |
| 20260905230044 | 104 | 228 | 8.0 | 16.0 | 0.00 | 0.00 | 0.00 | 18 | 993.6 |
| 20260905224543 | 104 | 212 | 7.0 | 16.0 | 0.00 | 0.00 | 0.00 | 18 | 993.7 |
| 20260905223043 | 104 | 207 | 7.0 | 13.0 | 0.00 | 0.00 | 0.00 | 18 | 993.7 |
| 20260905221603 | 105 | 197 | 6.0 | 14.0 | 0.00 | 0.00 | 0.00 | 17 | 993.9 |
| 20260905220039 | 104 | 240 | 8.0 | 16.0 | 0.00 | 0.00 | 0.00 | 17 | 994.1 |
| 20260905214540 | 104 | 209 | 8.0 | 16.0 | 0.00 | 0.00 | 0.00 | 16 | 994.2 |
| 20260905213055 | 103 | 238 | 8.0 | 18.0 | 0.00 | 0.00 | 0.00 | 16 | 994.5 |
| 20260905211540 | 104 | 155 | 5.0 | 13.0 | 0.00 | 0.00 | 0.00 | 15 | 994.7 |
| 20260905210048 | 104 | 158 | 9.0 | 19.0 | 0.00 | 0.00 | 0.00 | 16 | 994.9 |
| 20260905204543 | 103 | 152 | 8.0 | 21.0 | 0.00 | 0.00 | 0.00 | 16 | 995.0 |
| 20260905203040 | 103 | 242 | 7.0 | 18.0 | 0.00 | 0.00 | 0.00 | 16 | 995.3 |
| 20260905201534 | 103 | 184 | 5.0 | 11.0 | 0.00 | 0.00 | 0.00 | 16 | 995.5 |
| 20260905200038 | 102 | 173 | 3.0 | 12.0 | 0.00 | 0.00 | 0.00 | 15 | 995.7 |
| 20260905194529 | 101 | 142 | 4.0 | 10.0 | 0.00 | 0.00 | 0.00 | 15 | 995.9 |
| 20260905193027 | 100 | 136 | 1.0 | 5.0 | 0.00 | 0.00 | 0.00 | 15 | 996.2 |
| 20260905191525 | 99 | 142 | 6.0 | 13.0 | 0.00 | 0.00 | 0.00 | 15 | 996.6 |
| 20260905190023 | 97 | 107 | 1.0 | 11.0 | 0.00 | 0.00 | 0.00 | 16 | 996.7 |
| 20260905184534 | 97 | 151 | 5.0 | 12.0 | 0.00 | 0.00 | 0.00 | 15 | 996.9 |
| 20260905183022 | 98 | 132 | 4.0 | 9.0 | 0.00 | 0.00 | 0.00 | 15 | 997.0 |
| 20260905181520 | 97 | 159 | 6.0 | 11.0 | 0.00 | 0.00 | 0.00 | 16 | 997.2 |
| 20260905180019 | 96 | 144 | 6.0 | 13.0 | 0.00 | 0.00 | 0.00 | 16 | 997.3 |
| 20260905174517 | 95 | 175 | 5.0 | 13.0 | 0.00 | 0.00 | 0.00 | 16 | 997.2 |